Flag for U.S.A. Weather past 2 weeks in Tempe, Arizona, U.S.A.

Now
83 °F

Clear.


Feels Like: 82 °F
Forecast: 77 / 98 °F
Wind: 6 mph from Southwest

Location: Phoenix Sky Harbor International Airport

Current Time: Sep 22, 2014 at 3:39:56 AM

Latest Report: Sep 22, 2014 at 2:51 AM


Visibility: 10 mi

Pressure: 29.84 "Hg

Humidity: 38%

Dew point: 55 °F

Location of TempeLocation

Historic Weather in Tempe — Graph

°F

Tempe temperature yesterday

Maximum temperature yesterday: 98 °F (at 3:51 PM)
Minimum temperature yesterday: 80 °F (at 5:51 AM)
Average temperature yesterday: 90 °F

Past Weeks' High & Low Weather Summary

 TemperatureHumidityPressure
High104 °F (Sep 12, 2:51 PM)97% (Sep 8, 6:57 AM)29.92 "Hg (Sep 8, 6:57 AM)
Low71 °F (Sep 8, 3:01 AM)19% (Sep 12, 4:51 PM)29.63 "Hg (Sep 18, 4:51 PM)
Average89 °F45%29.76 "Hg
* Reported Sep 7 1:51 AM — Sep 22 1:51 AM, Tempe, Weather by CustomWeather, © 2014

Note: Actual official high and low records may vary slightly from our data, if they occured in-between our weather recording intervals... More about our weather records

Advertising

Tempe weather history for previous 24 hours

 ConditionsComfort  
Time TempWeatherWind HumidityBarometerVisibility
1:51 AM
Sep 22
84 °FClear.3 mph37%29.85 "Hg10 mi
12:51 AM85 °FClear.3 mph37%29.85 "Hg10 mi
11:51 PM
Sep 21
87 °FClear.7 mph39%29.83 "Hg10 mi
10:51 PM90 °FClear.No wind33%29.83 "Hg10 mi
9:51 PM91 °FPassing clouds.No wind30%29.82 "Hg10 mi
8:51 PM94 °FClear.5 mph24%29.81 "Hg10 mi
7:51 PM95 °FPassing clouds.6 mph23%29.80 "Hg10 mi
6:51 PM96 °FPassing clouds.8 mph22%29.78 "Hg10 mi
5:51 PM97 °FPassing clouds.6 mph20%29.77 "Hg10 mi
4:51 PM97 °FScattered clouds.6 mph23%29.77 "Hg10 mi
3:51 PM98 °FScattered clouds.7 mph22%29.78 "Hg10 mi
2:51 PM96 °FScattered clouds.3 mph21%29.80 "Hg10 mi
1:51 PM96 °FScattered clouds.6 mph20%29.81 "Hg10 mi
12:51 PM96 °FScattered clouds.3 mph22%29.83 "Hg10 mi
11:51 AM95 °FScattered clouds.5 mph25%29.86 "Hg10 mi
10:51 AM93 °FScattered clouds.5 mph23%29.88 "Hg10 mi
9:51 AM90 °FScattered clouds.3 mph29%29.89 "Hg10 mi
8:51 AM85 °FScattered clouds.7 mph42%29.88 "Hg10 mi
7:51 AM83 °FScattered clouds.6 mph53%29.88 "Hg10 mi
6:51 AM80 °FScattered clouds.6 mph60%29.86 "Hg10 mi
5:51 AM80 °FPassing clouds.7 mph62%29.84 "Hg10 mi
4:51 AM81 °FPassing clouds.5 mph67%29.82 "Hg10 mi
3:51 AM82 °FPassing clouds.3 mph60%29.81 "Hg10 mi
Weather by CustomWeather, © 2014

See weather overviewHow to use our weather pages